Time,TemperatureF,DewpointF,PressureIn,WindDirection,WindDirectionDegrees,WindSpeedMPH,WindSpeedGustMPH,Humidity,HourlyPrecipIn,Conditions,Clouds,dailyrainin,SoftwareType,DateUTC
2013-01-06 13:12:00,48.0,48.0,30.17,NNW,340,2.0,-999.0,100,-99.99,,,-99.99,,2013-01-06 21:12:00,
2013-01-06 13:22:00,48.0,48.0,30.17,North,10,2.0,-999.0,100,-99.99,,,-99.99,,2013-01-06 21:22:00,
2013-01-06 13:32:00,48.0,48.0,30.17,North,10,2.0,-999.0,100,-99.99,,,-99.99,,2013-01-06 21:32:00,
2013-01-06 13:42:00,48.0,48.0,30.17,NNW,330,2.0,-999.0,100,-99.99,,,-99.99,,2013-01-06 21:42:00,
2013-01-06 13:52:00,50.0,48.0,30.17,WNW,300,2.0,-999.0,93,-99.99,,,-99.99,,2013-01-06 21:52:00,
2013-01-06 14:01:00,50.0,48.0,30.17,WNW,300,2.0,-999.0,93,-99.99,,,-99.99,,2013-01-06 22:01:00,
2013-01-06 14:11:00,52.0,48.0,30.16,NNW,340,2.0,-999.0,87,-99.99,,,-99.99,,2013-01-06 22:11:00,
2013-01-06 14:22:00,52.0,48.0,30.16,NNW,330,2.0,-999.0,87,-99.99,,,-99.99,,2013-01-06 22:22:00,
2013-01-06 14:32:00,52.0,48.0,30.16,North,350,3.0,-999.0,87,-99.99,,,-99.99,,2013-01-06 22:32:00,
2013-01-06 14:42:00,52.0,48.0,30.16,NNW,340,2.0,-999.0,87,-99.99,,,-99.99,,2013-01-06 22:42:00,
2013-01-06 14:52:00,52.0,48.0,30.16,NW,320,3.0,-999.0,87,-99.99,,,-99.99,,2013-01-06 22:52:00,
2013-01-06 15:01:00,52.0,48.0,30.16,NW,320,3.0,-999.0,87,-99.99,,,-99.99,,2013-01-06 23:01:00,
2013-01-06 15:12:00,54.0,46.0,30.15,WNW,300,3.0,-999.0,76,-99.99,,,-99.99,,2013-01-06 23:12:00,
2013-01-06 15:22:00,54.0,46.0,30.15,North,0,0.0,-999.0,76,-99.99,,,-99.99,,2013-01-06 23:22:00,
2013-01-06 15:32:00,54.0,46.0,30.15,WNW,290,2.0,-999.0,76,-99.99,,,-99.99,,2013-01-06 23:32:00,
2013-01-06 15:42:00,54.0,48.0,30.15,SW,230,3.0,-999.0,81,-99.99,,,-99.99,,2013-01-06 23:42:00,
2013-01-06 15:53:00,52.0,46.0,30.15,SW,230,2.0,-999.0,81,-99.99,,,-99.99,,2013-01-06 23:53:00,
2013-01-06 16:02:00,52.0,46.0,30.15,SW,230,2.0,-999.0,81,-99.99,,,-99.99,,2013-01-07 00:02:00,
2013-01-06 16:11:00,52.0,48.0,30.15,SW,220,3.0,-999.0,87,-99.99,,,-99.99,,2013-01-07 00:11:00,
2013-01-06 16:22:00,52.0,48.0,30.15,SW,220,2.0,-999.0,87,-99.99,,,-99.99,,2013-01-07 00:22:00,
2013-01-06 16:32:00,52.0,48.0,30.15,SW,230,2.0,-999.0,87,-99.99,,,-99.99,,2013-01-07 00:32:00,
2013-01-06 16:42:00,52.0,48.0,30.16,SW,230,3.0,-999.0,87,-99.99,,,-99.99,,2013-01-07 00:42:00,
2013-01-06 16:53:00,52.0,48.0,30.16,SW,230,3.0,-999.0,87,-99.99,,,-99.99,,2013-01-07 00:53:00,
2013-01-06 17:02:00,52.0,48.0,30.16,SW,230,3.0,-999.0,87,-99.99,,,-99.99,,2013-01-07 01:02:00,
2013-01-06 17:11:00,50.0,48.0,30.15,SSW,200,2.0,-999.0,93,-99.99,,,-99.99,,2013-01-07 01:11:00,
2013-01-06 17:22:00,48.0,48.0,30.15,South,170,2.0,-999.0,100,-99.99,,,-99.99,,2013-01-07 01:22:00,
2013-01-06 17:32:00,48.0,48.0,30.15,SSE,160,3.0,-999.0,100,-99.99,,,-99.99,,2013-01-07 01:32:00,
2013-01-06 17:42:00,46.0,46.0,30.15,South,170,3.0,-999.0,100,-99.99,,,-99.99,,2013-01-07 01:42:00,
2013-01-06 17:52:00,46.0,46.0,30.15,South,180,5.0,-999.0,100,-99.99,,,-99.99,,2013-01-07 01:52:00,
2013-01-06 18:01:00,46.0,46.0,30.15,South,180,5.0,-999.0,100,-99.99,,,-99.99,,2013-01-07 02:01:00,
2013-01-06 18:11:00,45.0,45.0,30.15,South,180,5.0,-999.0,100,-99.99,,,-99.99,,2013-01-07 02:11:00,
2013-01-06 18:22:00,45.0,45.0,30.15,South,190,5.0,-999.0,100,-99.99,,,-99.99,,2013-01-07 02:22:00,
2013-01-06 18:32:00,45.0,45.0,30.16,South,180,5.0,-999.0,100,-99.99,,,-99.99,,2013-01-07 02:32:00,
2013-01-06 18:42:00,45.0,45.0,30.16,South,180,5.0,-999.0,100,-99.99,,,-99.99,,2013-01-07 02:42:00,
2013-01-06 18:53:00,45.0,45.0,30.16,South,180,3.0,-999.0,100,-99.99,,,-99.99,,2013-01-07 02:53:00,
2013-01-06 19:02:00,45.0,45.0,30.16,South,180,3.0,-999.0,100,-99.99,,,-99.99,,2013-01-07 03:02:00,
2013-01-06 19:11:00,45.0,45.0,30.16,South,170,3.0,-999.0,100,-99.99,,,-99.99,,2013-01-07 03:11:00,
2013-01-06 19:22:00,45.0,45.0,30.16,East,100,1.0,-999.0,100,-99.99,,,-99.99,,2013-01-07 03:22:00,
2013-01-06 19:32:00,43.0,43.0,30.16,North,0,0.0,-999.0,100,-99.99,,,-99.99,,2013-01-07 03:32:00,
2013-01-06 19:42:00,43.0,43.0,30.17,North,0,0.0,-999.0,100,-99.99,,,-99.99,,2013-01-07 03:42:00,
2013-01-06 19:52:00,43.0,43.0,30.17,North,0,0.0,-999.0,100,-99.99,,,-99.99,,2013-01-07 03:52:00,
2013-01-06 20:02:00,43.0,43.0,30.17,North,0,0.0,-999.0,100,-99.99,,,-99.99,,2013-01-07 04:02:00,
2013-01-06 20:12:00,41.0,41.0,30.17,NNE,20,1.0,-999.0,100,-99.99,,,-99.99,,2013-01-07 04:12:00,
2013-01-06 20:22:00,43.0,43.0,30.18,North,10,1.0,-999.0,100,-99.99,,,-99.99,,2013-01-07 04:22:00,
2013-01-06 20:32:00,41.0,41.0,30.18,NNE,30,1.0,-999.0,100,-99.99,,,-99.99,,2013-01-07 04:32:00,
2013-01-06 20:42:00,41.0,41.0,30.19,NNE,20,1.0,-999.0,100,-99.99,,,-99.99,,2013-01-07 04:42:00,
2013-01-06 20:52:00,39.0,39.0,30.19,North,0,0.0,-999.0,100,-99.99,,,-99.99,,2013-01-07 04:52:00,
2013-01-06 21:02:00,39.0,39.0,30.19,North,0,0.0,-999.0,100,-99.99,,,-99.99,,2013-01-07 05:02:00,
2013-01-06 21:12:00,39.0,39.0,30.20,NNW,330,1.0,-999.0,100,-99.99,,,-99.99,,2013-01-07 05:12:00,
2013-01-06 21:22:00,39.0,39.0,30.19,North,0,0.0,-999.0,100,-99.99,,,-99.99,,2013-01-07 05:22:00,
2013-01-06 21:32:00,37.0,37.0,30.18,North,0,0.0,-999.0,100,-99.99,,,-99.99,,2013-01-07 05:32:00,
2013-01-06 21:42:00,37.0,37.0,30.18,North,0,0.0,-999.0,100,-99.99,,,-99.99,,2013-01-07 05:42:00,
2013-01-06 21:52:00,36.0,36.0,30.17,West,270,2.0,-999.0,100,-99.99,,,-99.99,,2013-01-07 05:52:00,
2013-01-06 22:02:00,36.0,36.0,30.17,West,270,2.0,-999.0,100,-99.99,,,-99.99,,2013-01-07 06:02:00,
2013-01-06 22:11:00,37.0,37.0,30.17,WNW,290,2.0,-999.0,100,-99.99,,,-99.99,,2013-01-07 06:11:00,
2013-01-06 22:22:00,37.0,37.0,30.17,WNW,290,2.0,-999.0,100,-99.99,,,-99.99,,2013-01-07 06:22:00,
2013-01-06 22:32:00,37.0,37.0,30.18,West,260,5.0,-999.0,100,-99.99,,,-99.99,,2013-01-07 06:32:00,
2013-01-06 22:42:00,37.0,37.0,30.18,West,270,5.0,-999.0,100,-99.99,,,-99.99,,2013-01-07 06:42:00,
2013-01-06 22:52:00,37.0,37.0,30.18,West,280,3.0,-999.0,100,-99.99,,,-99.99,,2013-01-07 06:52:00,
2013-01-06 23:02:00,37.0,37.0,30.18,West,280,3.0,-999.0,100,-99.99,,,-99.99,,2013-01-07 07:02:00,
2013-01-06 23:11:00,37.0,37.0,30.18,West,280,5.0,-999.0,100,-99.99,,,-99.99,,2013-01-07 07:11:00,
2013-01-06 23:22:00,37.0,37.0,30.18,WNW,300,6.0,-999.0,100,-99.99,,,-99.99,,2013-01-07 07:22:00,
2013-01-06 23:32:00,39.0,39.0,30.18,NW,310,2.0,-999.0,100,-99.99,,,-99.99,,2013-01-07 07:32:00,
2013-01-06 23:42:00,39.0,39.0,30.18,NW,320,1.0,-999.0,100,-99.99,,,-99.99,,2013-01-07 07:42:00,
2013-01-06 23:52:00,39.0,39.0,30.18,WNW,300,2.0,-999.0,100,-99.99,,,-99.99,,2013-01-07 07:52:00,